Date String (YYYY-MM-DD hh:mm:ss) UTC,Instrument flags,absolute air pressure of the measurement (hPa),sample flow rate (lpm),inlet stack bypass flow (lpm),air temperature of the measurement (°C),ambient temperature measured by the external sensor (°C),aerosol sample conditioner tube jacket temperature (°C),OPC LED temperature (°C),internal box temperature (°C),relative humidity of the measurement (%),span deviation,mass concentration of particles derived from Lorenz-Mie calculation of OPC scattering (μg/m³),mass concentration of particles derived from Lorenz-Mie calculation of OPC scattering (μg/m³),mass concentration of particles derived from Lorenz-Mie calculation of OPC scattering (μg/m³)
DateTimeUTC,F1_M11,P_M11,Q1_M11,Q2_M11,T1_M11,T2_M11,T3_M11,T4_M11,T5_M11,U1_M11,ZSPAN_M11,X2_M11,X0_M11,X1_M11
2024-04-02 02:00:00,SystemResetWarning,0825.6,5.00,000.00,021.3,020.5,000.0,029.9,023.1,25.9,0000.0,0002.28,0002.76,0002.05
2024-04-02 02:01:00,SystemResetWarning,0825.7,4.99,000.00,021.2,020.5,000.0,029.8,023.1,25.9,0000.0,0002.26,0002.74,0002.04
2024-04-02 02:02:00,SystemResetWarning,0825.7,4.99,000.00,021.2,020.5,000.0,029.8,023.1,25.9,0000.0,0002.26,0002.73,0002.03
2024-04-02 02:03:00,SystemResetWarning,0825.8,4.99,000.00,021.2,020.5,000.0,029.8,023.1,25.8,0000.0,0002.25,0002.68,0002.04
2024-04-02 02:04:00,SystemResetWarning,0825.8,5.01,000.00,021.2,020.5,000.0,029.8,023.1,25.9,0000.0,0002.25,0002.64,0002.05
2024-04-02 02:05:00,SystemResetWarning,0825.8,5.00,000.00,021.2,020.5,000.0,029.8,023.1,26.4,0000.0,0002.20,0002.53,0002.02
2024-04-02 02:06:00,SystemResetWarning,0825.8,5.01,000.00,021.2,020.5,000.0,029.8,023.1,26.2,0000.0,0002.20,0002.51,0002.03
2024-04-02 02:07:00,SystemResetWarning,0825.8,5.00,000.00,021.2,020.4,000.0,029.8,023.1,25.9,0000.0,0002.25,0002.57,0002.05
2024-04-02 02:08:00,SystemResetWarning,0825.8,5.00,000.00,021.2,020.4,000.0,029.8,023.1,25.9,0000.0,0002.26,0002.83,0002.06
2024-04-02 02:09:00,SystemResetWarning,0825.9,5.00,000.00,021.2,020.4,000.0,029.8,023.1,26.1,0000.0,0002.27,0002.85,0002.07
2024-04-02 02:10:00,SystemResetWarning,0825.9,4.99,000.00,021.2,020.4,000.0,029.8,023.1,26.2,0000.0,0002.30,0002.90,0002.09
2024-04-02 02:11:00,SystemResetWarning,0825.9,4.99,000.00,021.2,020.4,000.0,029.8,023.1,26.1,0000.0,0002.31,0002.90,0002.11
2024-04-02 02:12:00,SystemResetWarning,0825.9,5.00,000.00,021.2,020.4,000.0,029.8,023.1,26.0,0000.0,0002.32,0002.89,0002.13
2024-04-02 02:13:00,SystemResetWarning,0825.9,5.00,000.00,021.2,020.4,000.0,029.8,023.0,26.0,0000.0,0002.33,0002.89,0002.14
2024-04-02 02:14:00,SystemResetWarning,0825.9,5.00,000.00,021.2,020.4,000.0,029.8,023.0,26.0,0000.0,0002.34,0002.92,0002.15
2024-04-02 02:15:00,SystemResetWarning,0825.9,5.00,000.00,021.2,020.4,000.0,029.8,023.1,25.9,0000.0,0002.35,0002.92,0002.16
2024-04-02 02:16:00,SystemResetWarning,0825.9,5.00,000.00,021.2,020.4,000.0,029.8,023.0,25.9,0000.0,0002.39,0002.95,0002.18
2024-04-02 02:17:00,SystemResetWarning,0826.0,4.99,000.00,021.2,020.4,000.0,029.8,023.1,25.9,0000.0,0002.39,0002.97,0002.20
2024-04-02 02:18:00,SystemResetWarning,0826.0,5.00,000.00,021.2,020.4,000.0,029.8,023.0,25.9,0000.0,0002.39,0003.05,0002.21
2024-04-02 02:19:00,SystemResetWarning,0826.0,5.00,000.00,021.2,020.5,000.0,029.8,023.0,25.9,0000.0,0002.43,0002.84,0002.23
2024-04-02 02:20:00,SystemResetWarning,0826.0,5.00,000.00,021.2,020.5,000.0,029.8,023.0,26.0,0000.0,0002.43,0002.78,0002.23
2024-04-02 02:21:00,SystemResetWarning,0826.1,5.00,000.00,021.2,020.5,000.0,029.8,023.1,26.1,0000.0,0002.43,0002.85,0002.23
2024-04-02 02:22:00,SystemResetWarning,0826.1,5.00,000.00,021.2,020.4,000.0,029.8,023.0,25.8,0000.0,0002.41,0002.83,0002.21
2024-04-02 02:23:00,SystemResetWarning,0826.1,5.00,000.00,021.2,020.4,000.0,029.8,023.0,25.8,0000.0,0002.40,0002.84,0002.19
2024-04-02 02:24:00,SystemResetWarning,0826.2,5.00,000.00,021.2,020.4,000.0,029.8,023.0,25.8,0000.0,0002.39,0003.01,0002.16
2024-04-02 02:25:00,SystemResetWarning,0826.2,5.00,000.00,021.2,020.4,000.0,029.8,023.0,25.7,0000.0,0002.38,0003.01,0002.13
2024-04-02 02:26:00,SystemResetWarning,0826.2,5.00,000.00,021.2,020.3,000.0,029.8,023.0,25.6,0000.0,0002.34,0002.97,0002.11
2024-04-02 02:27:00,SystemResetWarning,0826.2,5.00,000.00,021.2,020.3,000.0,029.8,023.0,25.7,0000.0,0002.31,0002.93,0002.09
2024-04-02 02:28:00,SystemResetWarning,0826.2,4.99,000.00,021.2,020.3,000.0,029.8,023.0,25.7,0000.0,0002.29,0002.88,0002.09
2024-04-02 02:29:00,SystemResetWarning,0826.2,5.00,000.00,021.2,020.3,000.0,029.8,023.0,25.7,0000.0,0002.25,0002.73,0002.07
2024-04-02 02:30:00,SystemResetWarning,0826.3,5.00,000.00,021.1,020.3,000.0,029.8,022.9,25.6,0000.0,0002.19,0002.60,0002.05
2024-04-02 02:31:00,SystemResetWarning,0826.2,5.00,000.00,021.1,020.2,000.0,029.8,022.9,25.6,0000.0,0002.22,0002.78,0002.05
2024-04-02 02:32:00,SystemResetWarning,0826.2,5.00,000.00,021.1,020.2,000.0,029.7,022.9,25.4,0000.0,0002.22,0002.78,0002.04
2024-04-02 02:33:00,SystemResetWarning,0826.3,5.00,000.00,021.1,020.2,000.0,029.7,022.9,25.3,0000.0,0002.23,0002.78,0002.05
2024-04-02 02:34:00,SystemResetWarning,0826.4,5.00,000.00,021.1,020.2,000.0,029.7,022.9,25.2,0000.0,0002.27,0002.89,0002.07
2024-04-02 02:35:00,SystemResetWarning,0826.4,5.01,000.00,021.1,020.2,000.0,029.7,022.9,25.0,0000.0,0002.31,0002.85,0002.09
2024-04-02 02:36:00,SystemResetWarning,0826.3,5.00,000.00,021.1,020.2,000.0,029.7,022.9,24.9,0000.0,0002.33,0002.89,0002.09
2024-04-02 02:37:00,SystemResetWarning,0826.4,5.01,000.00,021.1,020.2,000.0,029.7,022.9,24.9,0000.0,0002.32,0002.88,0002.08
2024-04-02 02:38:00,SystemResetWarning,0826.4,4.99,000.00,021.1,020.2,000.0,029.7,022.9,24.8,0000.0,0002.35,0002.94,0002.07
2024-04-02 02:39:00,SystemResetWarning,0826.4,4.98,000.00,021.1,020.2,000.0,029.7,022.9,24.8,0000.0,0002.36,0002.99,0002.07
2024-04-02 02:40:00,SystemResetWarning,0826.4,5.00,000.00,021.0,020.2,000.0,029.7,022.9,24.8,0000.0,0002.35,0002.97,0002.06
2024-04-02 02:41:00,SystemResetWarning,0826.4,5.00,000.00,021.0,020.2,000.0,029.7,022.9,24.7,0000.0,0002.33,0002.95,0002.05
2024-04-02 02:42:00,SystemResetWarning,0826.4,5.00,000.00,021.0,020.2,000.0,029.7,022.9,24.7,0000.0,0002.32,0002.90,0002.04
2024-04-02 02:43:00,SystemResetWarning,0826.5,5.00,000.00,021.0,020.2,000.0,029.7,022.8,24.7,0000.0,0002.32,0002.85,0002.03
2024-04-02 02:44:00,SystemResetWarning,0826.6,5.00,000.00,021.0,020.2,000.0,029.7,022.8,24.7,0000.0,0002.32,0002.85,0002.01
2024-04-02 02:45:00,SystemResetWarning,0826.6,4.99,000.00,021.0,020.2,000.0,029.7,022.8,24.6,0000.0,0002.28,0002.75,0002.00
2024-04-02 02:46:00,SystemResetWarning,0826.6,5.00,000.00,021.0,020.2,000.0,029.7,022.8,24.5,0000.0,0002.27,0002.70,0002.01
2024-04-02 02:47:00,SystemResetWarning,0826.6,5.00,000.00,021.0,020.2,000.0,029.6,022.8,24.5,0000.0,0002.25,0002.60,0002.01
2024-04-02 02:48:00,SystemResetWarning,0826.6,5.00,000.00,021.0,020.2,000.0,029.6,022.9,24.3,0000.0,0002.27,0002.67,0002.03
2024-04-02 02:49:00,SystemResetWarning,0826.6,5.00,000.00,021.0,020.2,000.0,029.6,022.9,24.2,0000.0,0002.28,0002.67,0002.06
2024-04-02 02:50:00,SystemResetWarning,0826.6,4.99,000.00,021.0,020.2,000.0,029.6,022.8,24.1,0000.0,0002.31,0002.70,0002.08
2024-04-02 02:51:00,SystemResetWarning,0826.6,5.00,000.00,021.0,020.2,000.0,029.6,022.9,24.0,0000.0,0002.35,0002.75,0002.12
2024-04-02 02:52:00,SystemResetWarning,0826.6,5.00,000.00,021.0,020.2,000.0,029.6,022.8,23.9,0000.0,0002.40,0002.84,0002.15
2024-04-02 02:53:00,SystemResetWarning,0826.6,5.00,000.00,021.0,020.2,000.0,029.6,022.8,23.8,0000.0,0002.41,0002.82,0002.17
2024-04-02 02:54:00,SystemResetWarning,0826.6,5.01,000.00,021.0,020.2,000.0,029.6,022.8,23.8,0000.0,0002.40,0002.73,0002.20
2024-04-02 02:55:00,SystemResetWarning,0826.7,5.00,000.00,021.0,020.2,000.0,029.6,022.8,23.7,0000.0,0002.41,0002.70,0002.24
2024-04-02 02:56:00,SystemResetWarning,0826.8,5.00,000.00,021.0,020.2,000.0,029.6,022.8,23.7,0000.0,0002.43,0002.71,0002.26
2024-04-02 02:57:00,SystemResetWarning,0826.8,5.00,000.00,021.0,020.2,000.0,029.6,022.8,23.6,0000.0,0002.43,0002.67,0002.28
2024-04-02 02:58:00,SystemResetWarning,0826.8,5.00,000.00,021.0,020.2,000.0,029.6,022.8,23.6,0000.0,0002.43,0002.64,0002.29
2024-04-02 02:59:00,SystemResetWarning,0826.8,5.00,000.00,021.0,020.2,000.0,029.6,022.8,23.5,0000.0,0002.43,0002.63,0002.30
